Tracking 28081 objects as of 27-Sep-2023
HD Live streaming from Space Station
objects crossing your sky now

NSTAR A

Track NSTAR A now!
NSTAR A is classified as:


NORAD ID: 23651
Int'l Code: 1995-044A
Perigee: 36,057.9 km
Apogee: 36,175.3 km
Inclination: 12.0 °
Period: 1,452.6 minutes
Semi major axis: 42487 km
RCS: 15.8489 m2 (large)
Launch date: August 29, 1995
Source: Japan (JPN)
Launch site: FRENCH GUIANA (FRGUI)

Voice and TV broadcast to Japan and neighboring region.
Your satellite tracking list
Your tracking list is empty




NASA's NSSDC Master Catalog

Two Line Element Set (TLE):
1 23651U 95044A   23269.62309250 -.00000259  00000-0  00000+0 0  9994
2 23651  12.0216  28.1085 0013824   7.1977 173.0291  0.99131000102104
Source of the keplerian elements: AFSPC